CPA834 RCTP-VHHH

Flight info

Callsign CPA834
Flight time 1h 25m
Altitude 40000
Route CHALI T3 MKG A1 ELATO V522 ABBEY
Aircraft A333/H-SDE3GHIJ2J3J5M1RVWXY/LB2D1

Departure

Time 2026-05-07 06:35
Airport Taiwan Taoyuan International Airport (RCTP)

Arrival

Time 2026-05-07 08:00
Airport Hong Kong International Airport (VHHH)
Time Latitude Longitude Altitude Speed Heading
2026-05-07 06:14 25.07935 121.23840 105 ft 0 kts 319°
2026-05-07 06:25 25.07925 121.23849 104 ft 2 kts 319°
2026-05-07 06:25 25.07914 121.23860 106 ft 2 kts 319°
2026-05-07 06:25 25.07898 121.23875 103 ft 2 kts 319°
2026-05-07 06:25 25.07890 121.23882 102 ft 2 kts 319°
2026-05-07 06:26 25.07879 121.23893 102 ft 2 kts 319°
2026-05-07 06:26 25.07867 121.23904 104 ft 2 kts 319°
2026-05-07 06:26 25.07856 121.23915 103 ft 2 kts 319°
2026-05-07 06:26 25.07844 121.23927 103 ft 2 kts 299°
2026-05-07 06:27 25.07842 121.23942 104 ft 2 kts 233°
2026-05-07 06:27 25.07852 121.23955 103 ft 2 kts 228°
2026-05-07 06:27 25.07853 121.23956 103 ft 0 kts 228°
2026-05-07 06:29 25.07845 121.23947 104 ft 3 kts 228°
2026-05-07 06:29 25.07824 121.23921 105 ft 6 kts 228°
2026-05-07 06:29 25.07792 121.23881 105 ft 8 kts 229°
2026-05-07 06:30 25.07746 121.23822 105 ft 12 kts 230°
2026-05-07 06:30 25.07686 121.23745 106 ft 15 kts 229°
2026-05-07 06:30 25.07602 121.23696 106 ft 14 kts 162°
2026-05-07 06:30 25.07519 121.23773 106 ft 17 kts 141°
2026-05-07 06:31 25.07444 121.23759 106 ft 12 kts 224°
2026-05-07 06:31 25.07372 121.23669 107 ft 19 kts 230°
2026-05-07 06:31 25.07275 121.23546 106 ft 24 kts 229°
2026-05-07 06:31 25.07155 121.23394 106 ft 28 kts 229°
2026-05-07 06:32 25.07020 121.23222 106 ft 30 kts 229°
2026-05-07 06:32 25.06877 121.23041 106 ft 33 kts 229°
2026-05-07 06:32 25.06725 121.22850 105 ft 33 kts 229°
2026-05-07 06:32 25.06573 121.22655 105 ft 34 kts 229°
2026-05-07 06:33 25.06418 121.22461 106 ft 34 kts 228°
2026-05-07 06:33 25.06327 121.22346 106 ft 7 kts 229°
2026-05-07 06:33 25.06283 121.22321 105 ft 8 kts 181°
2026-05-07 06:33 25.06239 121.22358 102 ft 10 kts 139°
2026-05-07 06:34 25.06176 121.22422 102 ft 13 kts 122°
2026-05-07 06:34 25.06193 121.22495 99 ft 0 kts 47°
2026-05-07 06:34 25.06224 121.22532 100 ft 30 kts 48°
2026-05-07 06:34 25.06524 121.22912 100 ft 100 kts 49°
2026-05-07 06:35 25.07119 121.23669 102 ft 160 kts 50°
2026-05-07 06:35 25.07893 121.24667 679 ft 172 kts 46°
2026-05-07 06:35 25.08613 121.25705 1545 ft 176 kts 63°
2026-05-07 06:35 25.09138 121.26977 2197 ft 190 kts 65°
2026-05-07 06:36 25.09853 121.28315 2598 ft 216 kts 46°
2026-05-07 06:36 25.11009 121.29480 3202 ft 231 kts 36°
2026-05-07 06:36 25.12453 121.30336 3909 ft 246 kts 14°
2026-05-07 06:36 25.14201 121.30371 4473 ft 261 kts 340°
2026-05-07 06:37 25.15735 121.29295 5208 ft 266 kts 313°
2026-05-07 06:37 25.17006 121.27780 6030 ft 272 kts 308°
2026-05-07 06:37 25.18256 121.26189 6878 ft 277 kts 307°
2026-05-07 06:37 25.19518 121.24601 7784 ft 279 kts 308°
2026-05-07 06:38 25.20817 121.22992 8742 ft 282 kts 308°
2026-05-07 06:38 25.22143 121.21367 9750 ft 284 kts 309°
2026-05-07 06:38 25.23482 121.19734 10535 ft 293 kts 309°
2026-05-07 06:38 25.24904 121.18003 10954 ft 314 kts 309°
2026-05-07 06:39 25.26406 121.16177 11530 ft 326 kts 309°
2026-05-07 06:39 25.27663 121.14099 12265 ft 328 kts 289°
2026-05-07 06:39 25.27999 121.11623 13087 ft 329 kts 265°
2026-05-07 06:39 25.27307 121.09216 13912 ft 335 kts 241°
2026-05-07 06:40 25.25792 121.07272 14627 ft 342 kts 225°
2026-05-07 06:40 25.24027 121.05488 15365 ft 345 kts 225°
2026-05-07 06:40 25.22295 121.03643 16110 ft 347 kts 227°
2026-05-07 06:40 25.20589 121.01743 16837 ft 350 kts 226°
2026-05-07 06:41 25.18815 120.99888 17580 ft 353 kts 225°
2026-05-07 06:41 25.17019 120.98024 18282 ft 355 kts 225°
2026-05-07 06:41 25.15216 120.96135 18865 ft 359 kts 225°
2026-05-07 06:41 25.13404 120.94218 19414 ft 363 kts 226°
2026-05-07 06:42 25.11597 120.92284 19947 ft 368 kts 226°
2026-05-07 06:42 25.09752 120.90299 20476 ft 372 kts 226°
2026-05-07 06:42 25.07885 120.88289 21028 ft 376 kts 226°
2026-05-07 06:42 25.06002 120.86260 21567 ft 380 kts 226°
2026-05-07 06:43 25.04100 120.84211 22112 ft 384 kts 226°
2026-05-07 06:43 25.02170 120.82133 22659 ft 388 kts 226°
2026-05-07 06:43 25.00227 120.80042 23204 ft 392 kts 226°
2026-05-07 06:43 24.98291 120.77958 23665 ft 396 kts 226°
2026-05-07 06:44 24.96313 120.75831 24108 ft 399 kts 226°
2026-05-07 06:44 24.94312 120.73681 24573 ft 401 kts 226°
2026-05-07 06:44 24.92305 120.71524 25033 ft 404 kts 226°
2026-05-07 06:44 24.90283 120.69353 25499 ft 406 kts 226°
2026-05-07 06:45 24.88279 120.67203 25927 ft 408 kts 227°
2026-05-07 06:45 24.86231 120.65005 26382 ft 411 kts 227°
2026-05-07 06:45 24.84179 120.62805 26825 ft 413 kts 227°
2026-05-07 06:45 24.82108 120.60586 27254 ft 416 kts 227°
2026-05-07 06:46 24.80031 120.58360 27683 ft 418 kts 227°
2026-05-07 06:46 24.77934 120.56115 28126 ft 421 kts 227°
2026-05-07 06:46 24.75830 120.53864 28552 ft 424 kts 227°
2026-05-07 06:46 24.73691 120.51621 28954 ft 427 kts 224°
2026-05-07 06:47 24.71357 120.49566 29381 ft 432 kts 220°
2026-05-07 06:47 24.68919 120.47621 29771 ft 435 kts 218°
2026-05-07 06:47 24.66409 120.45707 30089 ft 440 kts 218°
2026-05-07 06:47 24.63896 120.43831 30379 ft 443 kts 217°
2026-05-07 06:48 24.61303 120.41904 30736 ft 445 kts 217°
2026-05-07 06:48 24.58734 120.39990 31082 ft 447 kts 217°
2026-05-07 06:48 24.56192 120.38087 31439 ft 449 kts 218°
2026-05-07 06:48 24.53606 120.36143 31809 ft 450 kts 218°
2026-05-07 06:49 24.51017 120.34192 32122 ft 453 kts 218°
2026-05-07 06:49 24.48417 120.32229 32568 ft 452 kts 218°
2026-05-07 06:49 24.45827 120.30273 33071 ft 450 kts 218°
2026-05-07 06:49 24.43253 120.28303 33499 ft 450 kts 218°
2026-05-07 06:50 24.40691 120.26317 33851 ft 451 kts 218°
2026-05-07 06:50 24.38133 120.24323 34226 ft 451 kts 219°
2026-05-07 06:50 24.35580 120.22332 34579 ft 451 kts 219°
2026-05-07 06:50 24.33021 120.20338 34919 ft 451 kts 219°
2026-05-07 06:51 24.30467 120.18351 35248 ft 451 kts 219°
2026-05-07 06:51 24.27929 120.16379 35575 ft 451 kts 219°
2026-05-07 06:51 24.25367 120.14392 35900 ft 451 kts 220°
2026-05-07 06:51 24.22804 120.12406 36217 ft 451 kts 220°
2026-05-07 06:52 24.20236 120.10418 36492 ft 452 kts 220°
2026-05-07 06:52 24.17655 120.08421 36796 ft 453 kts 220°
2026-05-07 06:52 24.15088 120.06436 37101 ft 453 kts 220°
2026-05-07 06:52 24.12507 120.04441 37419 ft 452 kts 221°
2026-05-07 06:53 24.09965 120.02477 37732 ft 452 kts 221°
2026-05-07 06:53 24.07401 120.00497 38050 ft 452 kts 221°
2026-05-07 06:53 24.04830 119.98513 38337 ft 452 kts 221°
2026-05-07 06:53 24.02264 119.96534 38626 ft 451 kts 221°
2026-05-07 06:54 23.99698 119.94556 38871 ft 451 kts 221°
2026-05-07 06:54 23.97130 119.92577 39105 ft 451 kts 221°
2026-05-07 06:54 23.94567 119.90603 39307 ft 451 kts 221°
2026-05-07 06:54 23.92000 119.88627 39524 ft 451 kts 220°
2026-05-07 06:55 23.89434 119.86654 39779 ft 450 kts 220°
2026-05-07 06:55 23.86871 119.84683 39976 ft 451 kts 220°
2026-05-07 06:55 23.81696 119.80703 40011 ft 458 kts 221°
2026-05-07 06:56 23.76511 119.76725 40005 ft 456 kts 221°
2026-05-07 06:56 23.71318 119.72746 40000 ft 457 kts 220°
2026-05-07 06:57 23.66094 119.68742 40001 ft 460 kts 220°
2026-05-07 06:57 23.60985 119.64573 40000 ft 455 kts 228°
2026-05-07 06:58 23.57003 119.59337 40001 ft 446 kts 240°
2026-05-07 06:58 23.53624 119.53681 39999 ft 445 kts 243°
2026-05-07 06:59 23.50359 119.47963 39996 ft 444 kts 242°
2026-05-07 06:59 23.47085 119.42247 40004 ft 448 kts 242°
2026-05-07 07:00 23.43755 119.36493 40011 ft 449 kts 242°
2026-05-07 07:00 23.40404 119.30736 40014 ft 450 kts 242°
2026-05-07 07:01 23.37051 119.24983 40011 ft 450 kts 242°
2026-05-07 07:01 23.33704 119.19245 40014 ft 448 kts 242°
2026-05-07 07:02 23.30383 119.13557 40009 ft 447 kts 242°
2026-05-07 07:02 23.27042 119.07837 40016 ft 449 kts 241°
2026-05-07 07:03 23.23683 119.02094 40016 ft 450 kts 241°
2026-05-07 07:03 23.20317 118.96348 40020 ft 450 kts 241°
2026-05-07 07:04 23.16960 118.90623 40025 ft 449 kts 241°
2026-05-07 07:04 23.13598 118.84897 40013 ft 448 kts 241°
2026-05-07 07:05 23.10266 118.79226 40023 ft 448 kts 241°
2026-05-07 07:05 23.06906 118.73515 39935 ft 448 kts 242°
2026-05-07 07:06 23.03549 118.67814 39930 ft 448 kts 242°
2026-05-07 07:06 23.00186 118.62112 39933 ft 448 kts 242°
2026-05-07 07:07 22.96832 118.56429 39933 ft 447 kts 242°
2026-05-07 07:07 22.93484 118.50775 39933 ft 447 kts 242°
2026-05-07 07:08 22.90107 118.45098 39933 ft 447 kts 242°
2026-05-07 07:08 22.86730 118.39430 39931 ft 447 kts 241°
2026-05-07 07:09 22.83346 118.33755 39933 ft 447 kts 241°
2026-05-07 07:09 22.79990 118.28132 39933 ft 447 kts 241°
2026-05-07 07:10 22.76615 118.22481 39933 ft 447 kts 241°
2026-05-07 07:10 22.73227 118.16816 39933 ft 447 kts 241°
2026-05-07 07:11 22.70411 118.12112 39927 ft 447 kts 241°
2026-05-07 07:11 22.66478 118.05550 39931 ft 447 kts 241°
2026-05-07 07:12 22.63662 118.00855 39933 ft 447 kts 241°
2026-05-07 07:12 22.60270 117.95205 39933 ft 447 kts 241°
2026-05-07 07:13 22.56898 117.89542 39930 ft 447 kts 242°
2026-05-07 07:13 22.53540 117.83883 39930 ft 447 kts 242°
2026-05-07 07:14 22.50179 117.78228 39933 ft 447 kts 242°
2026-05-07 07:14 22.46812 117.72575 39934 ft 447 kts 242°
2026-05-07 07:15 22.43439 117.66917 39929 ft 447 kts 241°
2026-05-07 07:15 22.40084 117.61297 39931 ft 448 kts 241°
2026-05-07 07:16 22.36706 117.55646 39928 ft 448 kts 241°
2026-05-07 07:16 22.34038 117.49655 39927 ft 439 kts 257°
2026-05-07 07:17 22.33175 117.43209 39931 ft 433 kts 270°
2026-05-07 07:17 22.33002 117.36700 39929 ft 432 kts 272°
2026-05-07 07:18 22.32943 117.30238 39931 ft 433 kts 272°
2026-05-07 07:18 22.32861 117.23741 39930 ft 433 kts 272°
2026-05-07 07:19 22.32747 117.17241 39932 ft 433 kts 271°
2026-05-07 07:19 22.32621 117.10768 39936 ft 433 kts 272°
2026-05-07 07:20 22.32491 117.04268 39929 ft 433 kts 272°
2026-05-07 07:20 22.32360 116.97767 39927 ft 433 kts 272°
2026-05-07 07:21 22.32226 116.91268 39932 ft 433 kts 272°
2026-05-07 07:21 22.32091 116.84768 39933 ft 433 kts 272°
2026-05-07 07:22 22.31952 116.78266 39918 ft 433 kts 272°
2026-05-07 07:22 22.31882 116.75027 39712 ft 431 kts 272°
2026-05-07 07:22 22.31812 116.71795 39483 ft 432 kts 272°
2026-05-07 07:23 22.31742 116.68587 39253 ft 433 kts 272°
2026-05-07 07:23 22.31670 116.65333 39026 ft 434 kts 272°
2026-05-07 07:23 22.31597 116.62074 38802 ft 434 kts 272°
2026-05-07 07:23 22.31523 116.58814 38570 ft 434 kts 272°
2026-05-07 07:24 22.31449 116.55551 38306 ft 435 kts 272°
2026-05-07 07:24 22.31374 116.52280 38036 ft 435 kts 272°
2026-05-07 07:24 22.31299 116.49015 37781 ft 435 kts 272°
2026-05-07 07:24 22.31222 116.45745 37519 ft 436 kts 272°
2026-05-07 07:25 22.31067 116.39176 37013 ft 438 kts 271°
2026-05-07 07:25 22.30989 116.35877 36762 ft 439 kts 271°
2026-05-07 07:25 22.30909 116.32579 36515 ft 440 kts 271°
2026-05-07 07:26 22.30828 116.29267 36266 ft 441 kts 271°
2026-05-07 07:26 22.30747 116.25959 36025 ft 442 kts 271°
2026-05-07 07:26 22.30664 116.22637 35731 ft 442 kts 271°
2026-05-07 07:26 22.30582 116.19349 35233 ft 444 kts 270°
2026-05-07 07:27 22.30498 116.16017 34651 ft 444 kts 270°
2026-05-07 07:27 22.30413 116.12673 33982 ft 446 kts 270°
2026-05-07 07:27 22.30327 116.09322 33245 ft 447 kts 270°
2026-05-07 07:27 22.30240 116.05964 32551 ft 447 kts 269°
2026-05-07 07:28 22.30153 116.02600 31854 ft 447 kts 269°
2026-05-07 07:28 22.30064 115.99243 31237 ft 446 kts 269°
2026-05-07 07:28 22.29976 115.95932 30936 ft 436 kts 269°
2026-05-07 07:28 22.29890 115.92738 30680 ft 422 kts 269°
2026-05-07 07:29 22.29805 115.89600 30264 ft 413 kts 269°
2026-05-07 07:29 22.29722 115.86529 29582 ft 409 kts 269°
2026-05-07 07:29 22.29638 115.83449 28658 ft 410 kts 269°
2026-05-07 07:29 22.29556 115.80371 28025 ft 410 kts 269°
2026-05-07 07:30 22.29475 115.77284 27545 ft 412 kts 269°
2026-05-07 07:30 22.29394 115.74195 27060 ft 410 kts 269°
2026-05-07 07:30 22.29313 115.71128 26550 ft 407 kts 269°
2026-05-07 07:30 22.29231 115.68081 26034 ft 404 kts 269°
2026-05-07 07:31 22.29150 115.65065 25531 ft 401 kts 269°
2026-05-07 07:31 22.29069 115.62067 25033 ft 398 kts 269°
2026-05-07 07:31 22.28987 115.59088 24535 ft 395 kts 268°
2026-05-07 07:31 22.28906 115.56134 24035 ft 393 kts 268°
2026-05-07 07:32 22.28825 115.53193 23545 ft 391 kts 268°
2026-05-07 07:32 22.28743 115.50274 22993 ft 388 kts 268°
2026-05-07 07:32 22.28662 115.47383 22502 ft 384 kts 268°
2026-05-07 07:32 22.28581 115.44518 22015 ft 380 kts 268°
2026-05-07 07:33 22.28501 115.41679 21532 ft 376 kts 268°
2026-05-07 07:33 22.28421 115.38900 21072 ft 374 kts 268°
2026-05-07 07:33 22.28341 115.36111 20584 ft 371 kts 268°
2026-05-07 07:33 22.28260 115.33330 20121 ft 368 kts 268°
2026-05-07 07:34 22.28177 115.30579 19656 ft 365 kts 268°
2026-05-07 07:34 22.28094 115.27851 19196 ft 362 kts 268°
2026-05-07 07:34 22.28011 115.25140 18733 ft 360 kts 268°
2026-05-07 07:34 22.27928 115.22451 18274 ft 357 kts 268°
2026-05-07 07:35 22.27845 115.19785 17765 ft 353 kts 268°
2026-05-07 07:35 22.27763 115.17145 17286 ft 350 kts 268°
2026-05-07 07:35 22.27681 115.14520 16835 ft 348 kts 268°
2026-05-07 07:35 22.27599 115.11913 16378 ft 347 kts 268°
2026-05-07 07:36 22.27517 115.09319 15926 ft 345 kts 268°
2026-05-07 07:36 22.27435 115.06739 15458 ft 343 kts 268°
2026-05-07 07:36 22.27354 115.04178 14996 ft 340 kts 268°
2026-05-07 07:36 22.27272 115.01630 14545 ft 338 kts 268°
2026-05-07 07:37 22.27192 114.99132 14103 ft 336 kts 268°
2026-05-07 07:37 22.27111 114.96617 13650 ft 334 kts 268°
2026-05-07 07:37 22.27029 114.94117 13161 ft 332 kts 268°
2026-05-07 07:37 22.26949 114.91634 12717 ft 330 kts 268°
2026-05-07 07:38 22.26868 114.89168 12283 ft 328 kts 268°
2026-05-07 07:38 22.26787 114.86715 11875 ft 326 kts 268°
2026-05-07 07:38 22.26706 114.84269 11579 ft 324 kts 267°
2026-05-07 07:38 22.26625 114.81849 11150 ft 321 kts 267°
2026-05-07 07:39 22.26370 114.79457 10866 ft 320 kts 256°
2026-05-07 07:39 22.25466 114.77276 10702 ft 320 kts 236°
2026-05-07 07:39 22.23997 114.75471 10593 ft 321 kts 226°
2026-05-07 07:39 22.22383 114.73802 10454 ft 321 kts 225°
2026-05-07 07:40 22.20757 114.72159 10292 ft 317 kts 224°
2026-05-07 07:40 22.19220 114.70604 10151 ft 294 kts 225°
2026-05-07 07:40 22.17786 114.69147 10014 ft 279 kts 225°
2026-05-07 07:40 22.16361 114.67690 9878 ft 283 kts 225°
2026-05-07 07:41 22.14934 114.66228 9728 ft 282 kts 225°
2026-05-07 07:41 22.13514 114.64772 9567 ft 281 kts 225°
2026-05-07 07:41 22.12096 114.63318 9442 ft 281 kts 225°
2026-05-07 07:41 22.10681 114.61866 9283 ft 280 kts 225°
2026-05-07 07:42 22.09268 114.60417 9167 ft 281 kts 225°
2026-05-07 07:42 22.07851 114.58964 9027 ft 281 kts 224°
2026-05-07 07:42 22.06433 114.57511 8891 ft 281 kts 225°
2026-05-07 07:42 22.05016 114.56059 8755 ft 281 kts 224°
2026-05-07 07:43 22.03600 114.54608 8618 ft 280 kts 225°
2026-05-07 07:43 22.02322 114.53033 8482 ft 278 kts 238°
2026-05-07 07:43 22.01447 114.51183 8349 ft 278 kts 246°
2026-05-07 07:43 22.00715 114.49288 8211 ft 277 kts 248°
2026-05-07 07:44 21.99993 114.47362 8080 ft 277 kts 248°
2026-05-07 07:44 21.99271 114.45443 7939 ft 276 kts 248°
2026-05-07 07:44 21.98546 114.43530 7806 ft 275 kts 248°
2026-05-07 07:44 21.97819 114.41619 7683 ft 275 kts 248°
2026-05-07 07:45 21.97092 114.39716 7538 ft 275 kts 248°
2026-05-07 07:45 21.96365 114.37814 7407 ft 274 kts 248°
2026-05-07 07:45 21.95638 114.35918 7253 ft 273 kts 248°
2026-05-07 07:45 21.94915 114.34030 7142 ft 272 kts 248°
2026-05-07 07:46 21.94193 114.32148 7003 ft 272 kts 248°
2026-05-07 07:46 21.93472 114.30269 6874 ft 271 kts 248°
2026-05-07 07:46 21.92760 114.28416 6745 ft 271 kts 248°
2026-05-07 07:46 21.92041 114.26543 6610 ft 270 kts 248°
2026-05-07 07:47 21.91323 114.24674 6482 ft 270 kts 248°
2026-05-07 07:47 21.90605 114.22808 6349 ft 269 kts 248°
2026-05-07 07:47 21.89928 114.20926 6213 ft 268 kts 253°
2026-05-07 07:47 21.89739 114.18932 6079 ft 269 kts 276°
2026-05-07 07:48 21.90310 114.17051 5949 ft 270 kts 294°
2026-05-07 07:48 21.91202 114.15260 5815 ft 271 kts 298°
2026-05-07 07:48 21.92137 114.13501 5699 ft 271 kts 298°
2026-05-07 07:48 21.93070 114.11743 5542 ft 270 kts 298°
2026-05-07 07:49 21.93992 114.09988 5416 ft 269 kts 298°
2026-05-07 07:49 21.94907 114.08235 5288 ft 268 kts 298°
2026-05-07 07:49 21.95818 114.06480 5154 ft 268 kts 298°
2026-05-07 07:49 21.96726 114.04725 5034 ft 268 kts 298°
2026-05-07 07:50 21.97636 114.02966 4892 ft 268 kts 298°
2026-05-07 07:50 21.98542 114.01213 4762 ft 267 kts 298°
2026-05-07 07:50 21.99445 113.99464 4642 ft 267 kts 298°
2026-05-07 07:50 22.00336 113.97736 4488 ft 267 kts 298°
2026-05-07 07:51 22.01236 113.95991 4374 ft 266 kts 298°
2026-05-07 07:51 22.02139 113.94239 4232 ft 267 kts 298°
2026-05-07 07:51 22.03045 113.92483 4113 ft 267 kts 297°
2026-05-07 07:51 22.03943 113.90739 3974 ft 266 kts 298°
2026-05-07 07:52 22.04843 113.88991 3849 ft 267 kts 298°
2026-05-07 07:52 22.05746 113.87237 3719 ft 267 kts 298°
2026-05-07 07:52 22.06636 113.85506 3591 ft 267 kts 298°
2026-05-07 07:52 22.07538 113.83753 3460 ft 267 kts 298°
2026-05-07 07:53 22.08441 113.81998 3336 ft 267 kts 298°
2026-05-07 07:53 22.09343 113.80245 3200 ft 268 kts 298°
2026-05-07 07:53 22.10292 113.78509 3070 ft 269 kts 305°
2026-05-07 07:53 22.11654 113.77141 2941 ft 269 kts 328°
2026-05-07 07:54 22.13306 113.76212 2806 ft 263 kts 334°
2026-05-07 07:54 22.14940 113.75411 2682 ft 253 kts 335°
2026-05-07 07:54 22.16509 113.74650 2577 ft 240 kts 335°
2026-05-07 07:54 22.17996 113.73923 2442 ft 228 kts 334°
2026-05-07 07:55 22.19409 113.73228 2321 ft 219 kts 334°
2026-05-07 07:55 22.20755 113.72560 2220 ft 206 kts 334°
2026-05-07 07:55 22.22043 113.71937 2090 ft 199 kts 339°
2026-05-07 07:55 22.23376 113.71712 2018 ft 197 kts
2026-05-07 07:56 22.24609 113.72318 1939 ft 196 kts 38°
2026-05-07 07:56 22.25672 113.73257 1837 ft 199 kts 44°
2026-05-07 07:56 22.26699 113.74251 1769 ft 197 kts 47°
2026-05-07 07:56 22.27559 113.75400 1657 ft 195 kts 54°
2026-05-07 07:57 22.28259 113.76574 1541 ft 175 kts 63°
2026-05-07 07:57 22.28752 113.77719 1493 ft 164 kts 72°
2026-05-07 07:57 22.29138 113.78878 1505 ft 165 kts 74°
2026-05-07 07:57 22.29516 113.80051 1497 ft 165 kts 75°
2026-05-07 07:58 22.29765 113.80829 1504 ft 163 kts 73°
2026-05-07 07:58 22.30220 113.82264 1282 ft 146 kts 78°
2026-05-07 07:58 22.30439 113.82965 1055 ft 145 kts 76°
2026-05-07 07:58 22.30847 113.84289 724 ft 136 kts 72°
2026-05-07 07:59 22.31176 113.85277 625 ft 146 kts 68°
2026-05-07 07:59 22.31555 113.86341 426 ft 158 kts 69°
2026-05-07 07:59 22.31924 113.87460 283 ft 158 kts 70°
2026-05-07 07:59 22.32148 113.88226 98 ft 157 kts 70°
2026-05-07 08:00 22.32490 113.89256 35 ft 127 kts 70°
2026-05-07 08:00 22.32714 113.89950 36 ft 69 kts 72°
2026-05-07 08:00 22.32818 113.90314 36 ft 46 kts 83°
2026-05-07 08:00 22.32784 113.90633 36 ft 31 kts 101°
2026-05-07 08:01 22.32803 113.90797 36 ft 18 kts 70°
2026-05-07 08:01 22.32849 113.90935 36 ft 21 kts 70°
2026-05-07 08:01 22.32895 113.91078 36 ft 21 kts 70°
2026-05-07 08:01 22.32948 113.91236 36 ft 24 kts 70°
2026-05-07 08:02 22.33002 113.91410 36 ft 26 kts 72°
2026-05-07 08:02 22.33063 113.91601 36 ft 28 kts 69°
2026-05-07 08:02 22.33129 113.91804 36 ft 30 kts 71°
2026-05-07 08:02 22.33184 113.91984 36 ft 24 kts 71°
2026-05-07 08:03 22.33176 113.92137 35 ft 19 kts 148°
2026-05-07 08:03 22.33052 113.92176 36 ft 19 kts 163°
2026-05-07 08:03 22.32920 113.92224 36 ft 21 kts 161°
2026-05-07 08:03 22.32774 113.92278 36 ft 23 kts 161°
2026-05-07 08:04 22.32616 113.92336 36 ft 25 kts 161°
2026-05-07 08:04 22.32445 113.92402 36 ft 27 kts 160°
2026-05-07 08:04 22.32321 113.92450 36 ft 14 kts 160°
2026-05-07 08:04 22.32243 113.92502 36 ft 12 kts 110°
2026-05-07 08:05 22.32263 113.92592 36 ft 14 kts 70°
2026-05-07 08:05 22.32245 113.92668 36 ft 10 kts 149°
2026-05-07 08:05 22.32165 113.92697 36 ft 16 kts 162°
2026-05-07 08:05 22.32037 113.92745 38 ft 23 kts 161°
2026-05-07 08:06 22.31931 113.92785 36 ft 14 kts 160°
2026-05-07 08:06 22.31889 113.92802 36 ft 2 kts 159°
2026-05-07 08:06 22.31866 113.92812 36 ft 5 kts 159°
2026-05-07 08:06 22.31823 113.92830 29 ft 0 kts 159°
2026-05-07 08:07 22.31786 113.92847 36 ft 11 kts 158°
2026-05-07 08:07 22.31699 113.92881 36 ft 15 kts 160°
2026-05-07 08:08 22.31590 113.92922 36 ft 17 kts 161°
2026-05-07 08:08 22.31521 113.92894 36 ft 11 kts 246°
2026-05-07 08:08 22.31490 113.92804 36 ft 13 kts 255°
2026-05-07 08:08 22.31445 113.92732 36 ft 9 kts 206°
2026-05-07 08:09 22.31420 113.92719 36 ft 2 kts 205°
2026-05-07 08:09 22.31402 113.92710 36 ft 3 kts 206°